Location: Dompnac
(44.5644°N, 4.1026°E)
Time: 04:35:25
(UTC+00:00)

NOSS 2-2 (E) - Pass Details

Date: 24 January 2021
Orbit: 462 x 1744 km, 63.3° (Epoch: 05 March)

Event Time Altitude Azimuth Distance (km) Brightness Sun altitude
Rises 18:57:38 0° 328° (NNW) 3,050 7.5 -24.1°
Reaches altitude 10° 18:59:58 10° 340° (NNW) 2,290 6.6 -24.5°
Enters shadow 19:03:11 27° 16° (NNE) 1,616 5.5 -25.1°
